User: anonymous   Login
Location: The D'Auria's Ocala Star Observatory
(29.0276°N, 82.1742°W)
Time: 11:39:30
(UTC-05:00)
Language:

Okean 3 Rocket - Orbit

View from above orbital plane
View from above orbital plane
View from above satellite
View from above satellite

Ground track
Ground track

The orbit data is extracted from the following two-line orbital elements,

1 21398U 91039B   15059.59018108  .00000342  00000-0  42540-4 0  9995
2 21398 082.5219 287.6239 0022853 056.4908 331.6465 14.79391973279763
Epoch (UTC): 28 February 2015 14:09:51
Eccentricity: 0.0022853
inclination: 82.5219°
perigee height: 615 km
apogee height: 647 km
right ascension of ascending node: 287.6239°
argument of perigee: 56.4908°
revolutions per day: 14.79391973
mean anomaly at epoch: 331.6465°
orbit number at epoch: 27976

The dashed part of the orbit path shows where the satellite is in the earth's shadow,  

DLR